Plato, MN

10:43 AM CST on February 13, 2016 (GMT -0600)
Glencoe Municipal

Weather History for KGYL - January, 2014

Change the Weather History Date:

Monday, January 13, 2014

  Actual Average (KHCD) Record (KHCD)
Temperature  
Mean Temperature 28 °F -  
Max Temperature 33 °F 22 °F 52 °F (1987)
Min Temperature 24 °F 3 °F -27 °F (1998)
Degree Days  
Heating Degree Days 36    
Moisture  
Dew Point 22 °F    
Average Humidity 75    
Maximum Humidity 83    
Minimum Humidity 66    
Precipitation  
Precipitation 0.00 in - - ()
Sea Level Pressure  
Sea Level Pressure 29.60 in    
Wind  
Wind Speed 10 mph (West)    
Max Wind Speed 20 mph    
Max Gust Speed 24 mph    
Visibility 10 miles    
Events Snow    
Averages and records for this station are not official NWS values.
T = Trace of Precipitation, MM = Missing Value Source: NWS Daily Summary

Daily Weather History Graph

Daily Weather History Graph

Search for Another Location

Airport or City:

Trip Planner

Search our weather history database for the weather conditions in past years. The results will help you decide how hot, cold, wet, or windy it might be!

Date:

Astronomy

Jan. 13, 2014 Rise Set
Actual Time 7:51 AM CST 4:59 PM CST
Civil Twilight 7:18 AM CST 5:32 PM CST
Nautical Twilight 6:42 AM CST 6:08 PM CST
Astronomical Twilight 6:07 AM CST 6:43 PM CST
Moon 3:15 PM CST 5:39 AM CST
Length of Visible Light 10h 13m
Length of Day
9h 08m
Waxing Gibbous, 95% of the Moon is Illuminated
Jan 13
Waxing Gibbous
Jan 15
Full
Jan 23
Last Quarter
Jan 30
New
Feb 6
First Quarter

Hourly Weather History & Observations

Time (CST) Temp. Windchill Dew Point Humidity Pressure Visibility Wind Dir Wind Speed Gust Speed Precip Events Conditions
12:13 AM 33.8 °F 27.0 °F 27.5 °F 78% 29.50 in 10.0 mi West 8.1 mph - N/A   Clear
12:32 AM 33.3 °F 25.7 °F 27.5 °F 79% 29.49 in 10.0 mi West 9.2 mph - N/A   Clear
12:53 AM 32.9 °F 25.9 °F 27.5 °F 81% 29.49 in 10.0 mi West 8.1 mph - N/A   Clear
1:12 AM 32.5 °F 23.7 °F 27.3 °F 81% 29.50 in 10.0 mi West 11.5 mph - N/A   Clear
1:32 AM 32.9 °F 24.1 °F 27.1 °F 79% 29.50 in 10.0 mi West 11.5 mph - N/A   Clear
1:52 AM 32.9 °F 24.1 °F 27.1 °F 79% 29.51 in 10.0 mi West 11.5 mph - N/A   Clear
2:13 AM 32.9 °F 22.8 °F 27.0 °F 79% 29.52 in 10.0 mi WNW 15.0 mph - N/A   Clear
2:32 AM 32.4 °F 22.5 °F 26.4 °F 79% 29.53 in 10.0 mi WNW 13.8 mph - N/A   Clear
2:53 AM 32.2 °F 21.4 °F 26.4 °F 79% 29.54 in 10.0 mi WNW 16.1 mph 21.9 mph N/A   Clear
3:12 AM 32.5 °F 23.7 °F 26.2 °F 78% 29.55 in 10.0 mi WNW 11.5 mph 20.7 mph N/A   Clear
3:32 AM 32.0 °F 21.2 °F 25.9 °F 78% 29.55 in 10.0 mi WNW 16.1 mph 20.7 mph N/A   Scattered Clouds
3:52 AM 32.0 °F 20.1 °F 25.7 °F 78% 29.56 in 10.0 mi WNW 19.6 mph 24.2 mph N/A   Overcast
4:13 AM 31.8 °F 20.6 °F 25.3 °F 77% 29.57 in 10.0 mi WNW 17.3 mph - N/A   Mostly Cloudy
4:33 AM 31.3 °F 19.9 °F 24.6 °F 76% 29.58 in 10.0 mi WNW 17.3 mph - N/A   Mostly Cloudy
4:52 AM 31.1 °F 20.5 °F 23.9 °F 75% 29.59 in 10.0 mi WNW 15.0 mph 19.6 mph N/A   Overcast
5:13 AM 30.4 °F 20.0 °F 23.2 °F 75% 29.59 in 10.0 mi WNW 13.8 mph - N/A   Overcast
5:33 AM 30.0 °F 19.1 °F 22.6 °F 74% 29.60 in 10.0 mi WNW 15.0 mph - N/A   Overcast
5:47 AM 30.0 °F 18.7 °F 21.9 °F 72% 29.61 in 10.0 mi WNW 16.1 mph - N/A   Overcast
6:13 AM 29.8 °F 19.3 °F 20.1 °F 67% 29.62 in 10.0 mi WNW 13.8 mph - N/A   Overcast
6:32 AM 28.9 °F 17.7 °F 18.9 °F 66% 29.63 in 10.0 mi WNW 15.0 mph 21.9 mph N/A   Scattered Clouds
6:53 AM 27.5 °F 16.3 °F 18.5 °F 69% 29.64 in 10.0 mi WNW 13.8 mph 19.6 mph N/A   Clear
7:12 AM 26.6 °F 17.5 °F 18.3 °F 71% 29.64 in 10.0 mi WNW 9.2 mph - N/A   Clear
7:33 AM 26.4 °F 16.0 °F 18.3 °F 71% 29.65 in 10.0 mi WNW 11.5 mph - N/A   Clear
7:53 AM 25.3 °F 14.1 °F 18.1 °F 74% 29.65 in 10.0 mi West 12.7 mph - N/A   Clear
8:13 AM 24.8 °F 13.4 °F 18.3 °F 76% 29.65 in 10.0 mi West 12.7 mph - N/A   Clear
8:32 AM 24.6 °F 13.8 °F 18.0 °F 76% 29.67 in 10.0 mi West 11.5 mph - N/A   Clear
8:53 AM 25.2 °F 13.9 °F 18.5 °F 76% 29.68 in 10.0 mi West 12.7 mph 16.1 mph N/A   Clear
9:13 AM 25.3 °F 16.0 °F 17.6 °F 72% 29.68 in 10.0 mi West 9.2 mph 17.3 mph N/A   Clear
9:33 AM 25.5 °F 15.5 °F 17.2 °F 71% 29.68 in 10.0 mi West 10.4 mph - N/A   Clear
9:53 AM 25.9 °F 15.3 °F 17.2 °F 70% 29.68 in 10.0 mi West 11.5 mph - N/A   Clear
10:13 AM 26.1 °F 16.8 °F 17.8 °F 71% 29.69 in 10.0 mi West 9.2 mph - N/A   Clear
10:33 AM 26.2 °F 15.8 °F 18.3 °F 72% 29.68 in 10.0 mi West 11.5 mph - N/A   Clear
10:52 AM 26.6 °F 16.8 °F 18.5 °F 71% 29.68 in 10.0 mi West 10.4 mph - N/A   Clear
11:13 AM 27.0 °F 16.1 °F 18.7 °F 71% 29.68 in 10.0 mi West 12.7 mph 16.1 mph N/A   Clear
11:33 AM 27.1 °F 16.4 °F 19.0 °F 72% 29.67 in 10.0 mi West 12.7 mph 17.3 mph N/A   Clear
11:52 AM 27.5 °F 16.3 °F 19.2 °F 71% 29.67 in 10.0 mi West 13.8 mph - N/A   Clear
12:13 PM 28.2 °F 16.8 °F 19.0 °F 68% 29.66 in 10.0 mi West 15.0 mph 20.7 mph N/A   Clear
12:33 PM 28.4 °F 17.0 °F 18.5 °F 66% 29.66 in 10.0 mi West 15.0 mph 20.7 mph N/A   Clear
12:52 PM 28.6 °F 18.7 °F 19.4 °F 69% 29.65 in 10.0 mi West 11.5 mph - N/A   Clear
1:13 PM 29.3 °F 20.8 °F 20.1 °F 69% 29.64 in 10.0 mi West 9.2 mph - N/A   Scattered Clouds
1:33 PM 30.0 °F 20.5 °F 20.3 °F 67% 29.64 in 10.0 mi West 11.5 mph 17.3 mph N/A   Clear
1:53 PM 29.8 °F 22.2 °F 21.2 °F 70% 29.64 in 10.0 mi West 8.1 mph - N/A   Clear
2:13 PM 29.8 °F 20.9 °F 21.2 °F 70% 29.64 in 10.0 mi West 10.4 mph 16.1 mph N/A   Clear
2:33 PM 29.7 °F 22.8 °F 21.4 °F 71% 29.64 in 10.0 mi WSW 6.9 mph - N/A   Clear
2:53 PM 30.6 °F 23.8 °F 22.1 °F 71% 29.64 in 10.0 mi WSW 6.9 mph - N/A   Clear
3:13 PM 30.2 °F 24.3 °F 21.9 °F 71% 29.64 in 10.0 mi WSW 5.8 mph - N/A   Clear
3:33 PM 30.6 °F 24.7 °F 22.1 °F 71% 29.65 in 10.0 mi WSW 5.8 mph - N/A   Clear
3:53 PM 30.0 °F 24.1 °F 21.9 °F 72% 29.64 in 10.0 mi WSW 5.8 mph - N/A   Scattered Clouds
4:13 PM 29.3 °F 23.2 °F 21.6 °F 73% 29.64 in 10.0 mi WSW 5.8 mph - N/A   Mostly Cloudy
4:33 PM 29.7 °F 24.7 °F 21.7 °F 72% 29.64 in 10.0 mi SW 4.6 mph - N/A   Overcast
4:53 PM 29.7 °F 24.7 °F 21.9 °F 73% 29.63 in 10.0 mi SW 4.6 mph - N/A   Overcast
5:13 PM 29.7 °F 24.7 °F 22.1 °F 73% 29.64 in 10.0 mi SW 4.6 mph - N/A   Overcast
5:33 PM 29.7 °F 24.7 °F 22.1 °F 73% 29.63 in 10.0 mi SSW 4.6 mph - N/A   Overcast
5:53 PM 29.3 °F 25.6 °F 23.0 °F 77% 29.63 in 10.0 mi SSW 3.5 mph - N/A   Overcast
6:13 PM 30.2 °F 24.3 °F 23.5 °F 76% 29.63 in 10.0 mi South 5.8 mph - N/A   Overcast
6:32 PM 30.2 °F 23.4 °F 23.9 °F 77% 29.62 in 10.0 mi South 6.9 mph - N/A   Overcast
6:53 PM 30.6 °F 24.7 °F 24.3 °F 77% 29.62 in 7.0 mi South 5.8 mph - N/A Snow Light Snow
7:12 PM 30.6 °F 27.1 °F 24.3 °F 77% 29.61 in 7.0 mi South 3.5 mph - N/A Snow Light Snow
7:33 PM 30.6 °F 24.7 °F 24.1 °F 77% 29.60 in 10.0 mi SSE 5.8 mph - N/A   Overcast
7:53 PM 30.2 °F 25.4 °F 23.9 °F 77% 29.59 in 10.0 mi SE 4.6 mph - N/A Snow Light Snow
8:13 PM 30.0 °F 25.2 °F 24.4 °F 80% 29.58 in 10.0 mi SE 4.6 mph - N/A   Overcast
8:33 PM 30.0 °F 24.1 °F 24.3 °F 79% 29.57 in 10.0 mi ESE 5.8 mph - N/A   Overcast
8:53 PM 30.0 °F 24.1 °F 24.6 °F 80% 29.55 in 10.0 mi ESE 5.8 mph - N/A   Overcast
9:13 PM 29.5 °F 22.5 °F 24.6 °F 82% 29.55 in 10.0 mi East 6.9 mph - N/A   Overcast
9:33 PM 29.8 °F 22.2 °F 24.4 °F 80% 29.53 in 10.0 mi ESE 8.1 mph - N/A   Overcast
9:53 PM 29.3 °F 23.2 °F 24.4 °F 82% 29.53 in 10.0 mi ESE 5.8 mph - N/A   Overcast
10:12 PM 28.9 °F 21.9 °F 23.9 °F 81% 29.51 in 10.0 mi East 6.9 mph - N/A   Mostly Cloudy
10:33 PM 28.0 °F 20.8 °F 23.5 °F 83% 29.51 in 10.0 mi East 6.9 mph - N/A   Scattered Clouds
10:53 PM 28.4 °F 23.3 °F 23.4 °F 81% 29.51 in 10.0 mi ESE 4.6 mph - N/A   Mostly Cloudy
11:12 PM 28.2 °F 23.1 °F 23.4 °F 82% 29.50 in 10.0 mi East 4.6 mph - N/A   Overcast
11:33 PM 28.9 °F 25.2 °F 23.9 °F 81% 29.49 in 10.0 mi East 3.5 mph - N/A   Overcast
11:53 PM 29.8 °F 23.9 °F 24.3 °F 80% 29.48 in 10.0 mi East 5.8 mph - N/A   Overcast